VOYAGER:1:PRINTED,ON:,18-JUL-02:14:25:57:GROUP15
START_TIME,STOP_TIME,SECTOR,SCAN_DIR,SARRATE,SARUNC,SALRATE,SALUNC,ALARRATE,ALARUNC,SE5RATE,SE5UNC,SE4RATE,SE4UNC
1979-02-27 00:00:42.290 ,1979-02-27 00:01:05.850 ,5,1,-1.00,-1.00,-1.00,-1.00,48.7,1.59,-1.00,-1.00,-1.00,-1.00
1979-02-27 00:01:06.290 ,1979-02-27 00:01:29.850 ,6,1,-1.00,-1.00,-1.00,-1.00,44.2,1.51,-1.00,-1.00,31.7,2.30
1979-02-27 00:01:30.290 ,1979-02-27 00:01:53.850 ,7,1,-1.00,-1.00,-1.00,-1.00,47.1,1.56,50.8,2.91,33.3,2.63
1979-02-27 00:01:54.290 ,1979-02-27 00:02:35.850 ,8,1,-1.00,-1.00,156.,3.79,46.5,1.17,51.2,3.27,-1.00,-1.00
1979-02-27 00:02:35.910 ,1979-02-27 00:02:41.850 ,8,-1,145.,4.90,-1.00,-1.00,46.7,3.11,-1.00,-1.00,-1.00,-1.00
1979-02-27 00:02:42.290 ,1979-02-27 00:03:05.850 ,7,-1,142.,5.42,-1.00,-1.00,45.8,1.54,-1.00,-1.00,-1.00,-1.00
1979-02-27 00:03:06.290 ,1979-02-27 00:03:29.850 ,6,-1,-1.00,-1.00,-1.00,-1.00,47.9,1.58,-1.00,-1.00,-1.00,-1.00
1979-02-27 00:03:30.290 ,1979-02-27 00:03:53.850 ,5,-1,-1.00,-1.00,-1.00,-1.00,46.0,1.55,-1.00,-1.00,-1.00,-1.00
1979-02-27 00:03:54.290 ,1979-02-27 00:04:17.850 ,4,-1,-1.00,-1.00,-1.00,-1.00,44.6,1.52,-1.00,-1.00,-1.00,-1.00
1979-02-27 00:04:18.290 ,1979-02-27 00:04:41.850 ,3,-1,-1.00,-1.00,-1.00,-1.00,47.3,1.57,-1.00,-1.00,32.0,2.31
1979-02-27 00:04:42.290 ,1979-02-27 00:05:05.850 ,2,-1,-1.00,-1.00,-1.00,-1.00,45.4,1.53,49.8,2.88,31.7,2.57
1979-02-27 00:05:05.920 ,1979-02-27 00:05:30.290 ,1,-1,-1.00,-1.00,148.,4.53,47.2,1.81,37.5,5.59,-1.00,-1.00
1979-02-27 00:05:30.290 ,1979-02-27 00:05:53.850 ,1,1,146.,4.93,148.,5.53,47.1,1.56,-1.00,-1.00,-1.00,-1.00
1979-02-27 00:05:54.290 ,1979-02-27 00:06:17.850 ,2,1,137.,5.32,-1.00,-1.00,44.0,1.51,-1.00,-1.00,-1.00,-1.00
1979-02-27 00:06:18.290 ,1979-02-27 00:06:41.850 ,3,1,-1.00,-1.00,-1.00,-1.00,46.7,1.55,-1.00,-1.00,-1.00,-1.00
1979-02-27 00:06:42.290 ,1979-02-27 00:07:05.850 ,4,1,-1.00,-1.00,-1.00,-1.00,44.6,1.52,-1.00,-1.00,-1.00,-1.00
1979-02-27 00:07:06.290 ,1979-02-27 00:07:29.850 ,5,1,-1.00,-1.00,-1.00,-1.00,46.3,1.55,-1.00,-1.00,-1.00,-1.00
1979-02-27 00:07:30.290 ,1979-02-27 00:07:53.850 ,6,1,-1.00,-1.00,-1.00,-1.00,45.8,1.54,-1.00,-1.00,34.3,2.39
1979-02-27 00:07:54.290 ,1979-02-27 00:08:17.850 ,7,1,-1.00,-1.00,-1.00,-1.00,49.4,1.60,58.5,3.12,30.2,2.51
1979-02-27 00:08:18.290 ,1979-02-27 00:08:59.850 ,8,1,-1.00,-1.00,148.,3.70,47.5,1.19,48.7,3.18,-1.00,-1.00
1979-02-27 00:08:59.910 ,1979-02-27 00:09:05.850 ,8,-1,142.,4.86,-1.00,-1.00,46.7,3.11,-1.00,-1.00,-1.00,-1.00
1979-02-27 00:09:06.290 ,1979-02-27 00:09:29.850 ,7,-1,140.,5.38,-1.00,-1.00,46.5,1.55,-1.00,-1.00,-1.00,-1.00
1979-02-27 00:09:30.290 ,1979-02-27 00:09:53.850 ,6,-1,-1.00,-1.00,-1.00,-1.00,47.9,1.58,-1.00,-1.00,-1.00,-1.00
1979-02-27 00:09:54.290 ,1979-02-27 00:10:17.850 ,5,-1,-1.00,-1.00,-1.00,-1.00,48.1,1.58,-1.00,-1.00,-1.00,-1.00
1979-02-27 00:10:18.290 ,1979-02-27 00:10:41.850 ,4,-1,-1.00,-1.00,-1.00,-1.00,43.3,1.50,-1.00,-1.00,-1.00,-1.00
1979-02-27 00:10:42.290 ,1979-02-27 00:11:05.850 ,3,-1,-1.00,-1.00,-1.00,-1.00,46.5,1.55,-1.00,-1.00,29.2,2.20
1979-02-27 00:11:06.290 ,1979-02-27 00:11:29.850 ,2,-1,-1.00,-1.00,-1.00,-1.00,47.5,1.57,50.3,2.89,28.9,2.83
1979-02-27 00:11:29.910 ,1979-02-27 00:11:54.290 ,1,-1,-1.00,-1.00,151.,4.56,48.3,1.83,40.0,5.77,-1.00,-1.00
1979-02-27 00:11:54.290 ,1979-02-27 00:12:17.850 ,1,1,140.,4.81,153.,5.62,44.2,1.51,-1.00,-1.00,-1.00,-1.00
1979-02-27 00:12:18.290 ,1979-02-27 00:12:41.850 ,2,1,133.,5.24,-1.00,-1.00,47.3,1.57,-1.00,-1.00,-1.00,-1.00
1979-02-27 00:12:42.290 ,1979-02-27 00:13:05.850 ,3,1,-1.00,-1.00,-1.00,-1.00,45.6,1.54,-1.00,-1.00,-1.00,-1.00
1979-02-27 00:13:06.290 ,1979-02-27 00:13:29.850 ,4,1,-1.00,-1.00,-1.00,-1.00,42.1,1.48,-1.00,-1.00,-1.00,-1.00
1979-02-27 00:13:30.290 ,1979-02-27 00:13:53.850 ,5,1,-1.00,-1.00,-1.00,-1.00,44.8,1.53,-1.00,-1.00,-1.00,-1.00
1979-02-27 00:13:54.290 ,1979-02-27 00:14:17.850 ,6,1,-1.00,-1.00,-1.00,-1.00,45.8,1.54,-1.00,-1.00,30.2,2.24
1979-02-27 00:14:18.290 ,1979-02-27 00:14:41.850 ,7,1,-1.00,-1.00,-1.00,-1.00,46.5,1.55,57.5,3.09,32.3,2.59
1979-02-27 00:14:42.290 ,1979-02-27 00:15:23.850 ,8,1,-1.00,-1.00,150.,3.71,46.5,1.17,45.0,3.06,-1.00,-1.00
1979-02-27 00:15:23.910 ,1979-02-27 00:15:29.850 ,8,-1,141.,4.84,-1.00,-1.00,51.7,3.28,-1.00,-1.00,-1.00,-1.00
1979-02-27 00:15:30.290 ,1979-02-27 00:15:53.850 ,7,-1,139.,5.37,-1.00,-1.00,47.7,1.57,-1.00,-1.00,-1.00,-1.00
1979-02-27 00:15:54.290 ,1979-02-27 00:16:17.850 ,6,-1,-1.00,-1.00,-1.00,-1.00,46.0,1.55,-1.00,-1.00,-1.00,-1.00
1979-02-27 00:16:18.290 ,1979-02-27 00:16:41.850 ,5,-1,-1.00,-1.00,-1.00,-1.00,48.1,1.58,-1.00,-1.00,-1.00,-1.00
1979-02-27 00:16:42.290 ,1979-02-27 00:17:05.850 ,4,-1,-1.00,-1.00,-1.00,-1.00,46.0,1.55,-1.00,-1.00,-1.00,-1.00
1979-02-27 00:17:06.290 ,1979-02-27 00:17:29.850 ,3,-1,-1.00,-1.00,-1.00,-1.00,47.5,1.57,-1.00,-1.00,29.3,2.21
1979-02-27 00:17:30.290 ,1979-02-27 00:17:53.850 ,2,-1,-1.00,-1.00,-1.00,-1.00,45.8,1.54,48.8,2.85,27.3,2.38
1979-02-27 00:17:53.920 ,1979-02-27 00:18:18.290 ,1,-1,-1.00,-1.00,158.,4.66,40.8,1.68,52.5,6.61,-1.00,-1.00
1979-02-27 00:18:18.290 ,1979-02-27 00:18:41.850 ,1,1,141.,4.84,161.,5.78,46.3,1.55,-1.00,-1.00,-1.00,-1.00
1979-02-27 00:18:42.290 ,1979-02-27 00:19:05.850 ,2,1,137.,5.32,-1.00,-1.00,45.0,1.53,-1.00,-1.00,-1.00,-1.00
1979-02-27 00:19:06.290 ,1979-02-27 00:19:29.850 ,3,1,-1.00,-1.00,-1.00,-1.00,47.9,1.58,-1.00,-1.00,-1.00,-1.00
1979-02-27 00:19:30.290 ,1979-02-27 00:19:53.850 ,4,1,-1.00,-1.00,-1.00,-1.00,45.0,3.06,-1.00,-1.00,-1.00,-1.00
1979-02-27 00:19:54.290 ,1979-02-27 00:20:11.850 ,5,1,-1.00,-1.00,-1.00,-1.00,46.4,1.79,-1.00,-1.00,-1.00,-1.00
1979-02-27 03:23:47.920 ,1979-02-27 03:24:11.920 ,9,0,-1.00,-1.00,153.,3.55,44.8,1.37,-1.00,-1.00,-1.00,-1.00
1979-02-27 03:24:11.920 ,1979-02-27 03:24:17.850 ,1,1,138.,4.79,-1.00,-1.00,47.5,3.14,-1.00,-1.00,-1.00,-1.00
1979-02-27 03:24:18.290 ,1979-02-27 03:24:41.850 ,2,1,138.,5.35,-1.00,-1.00,45.6,1.54,-1.00,-1.00,-1.00,-1.00
1979-02-27 03:24:42.290 ,1979-02-27 03:25:05.850 ,3,1,-1.00,-1.00,-1.00,-1.00,47.7,1.57,-1.00,-1.00,-1.00,-1.00
1979-02-27 03:25:06.290 ,1979-02-27 03:25:29.850 ,4,1,-1.00,-1.00,-1.00,-1.00,43.1,1.50,-1.00,-1.00,-1.00,-1.00
1979-02-27 03:25:30.290 ,1979-02-27 03:25:53.850 ,5,1,-1.00,-1.00,-1.00,-1.00,45.4,1.53,-1.00,-1.00,-1.00,-1.00
1979-02-27 03:25:54.290 ,1979-02-27 03:26:17.850 ,6,1,-1.00,-1.00,-1.00,-1.00,47.9,1.58,-1.00,-1.00,32.7,2.33
1979-02-27 03:26:18.290 ,1979-02-27 03:26:41.850 ,7,1,-1.00,-1.00,-1.00,-1.00,46.5,1.55,59.7,3.15,29.8,2.49
1979-02-27 03:26:42.290 ,1979-02-27 03:27:23.850 ,8,1,-1.00,-1.00,140.,3.60,45.7,1.16,54.4,3.36,-1.00,-1.00
1979-02-27 03:27:23.920 ,1979-02-27 03:27:29.850 ,8,-1,141.,4.84,-1.00,-1.00,39.2,2.85,-1.00,-1.00,-1.00,-1.00
1979-02-27 03:27:30.290 ,1979-02-27 03:27:53.850 ,7,-1,129.,5.19,-1.00,-1.00,44.8,1.53,-1.00,-1.00,-1.00,-1.00
1979-02-27 03:27:54.290 ,1979-02-27 03:28:17.850 ,6,-1,-1.00,-1.00,-1.00,-1.00,45.4,1.53,-1.00,-1.00,-1.00,-1.00
1979-02-27 03:28:18.290 ,1979-02-27 03:28:41.850 ,5,-1,-1.00,-1.00,-1.00,-1.00,46.0,1.55,-1.00,-1.00,-1.00,-1.00
1979-02-27 03:28:42.290 ,1979-02-27 03:29:05.850 ,4,-1,-1.00,-1.00,-1.00,-1.00,46.9,1.56,-1.00,-1.00,-1.00,-1.00
1979-02-27 03:29:06.290 ,1979-02-27 03:29:29.850 ,3,-1,-1.00,-1.00,-1.00,-1.00,47.3,1.57,-1.00,-1.00,28.7,2.18
1979-02-27 03:29:30.290 ,1979-02-27 03:29:53.850 ,2,-1,-1.00,-1.00,-1.00,-1.00,46.7,1.55,52.3,2.95,30.8,2.53
1979-02-27 03:29:53.920 ,1979-02-27 03:30:18.290 ,1,-1,-1.00,-1.00,142.,4.43,47.2,1.81,45.8,6.17,-1.00,-1.00
1979-02-27 03:30:18.290 ,1979-02-27 03:30:41.850 ,1,1,133.,4.71,158.,5.71,44.2,1.51,-1.00,-1.00,-1.00,-1.00
1979-02-27 03:30:42.290 ,1979-02-27 03:31:05.850 ,2,1,135.,5.29,-1.00,-1.00,46.3,1.55,-1.00,-1.00,-1.00,-1.00
1979-02-27 03:31:06.290 ,1979-02-27 03:31:29.850 ,3,1,-1.00,-1.00,-1.00,-1.00,47.3,1.57,-1.00,-1.00,-1.00,-1.00
1979-02-27 03:31:30.290 ,1979-02-27 03:31:53.850 ,4,1,-1.00,-1.00,-1.00,-1.00,47.3,1.57,-1.00,-1.00,-1.00,-1.00
1979-02-27 03:31:54.290 ,1979-02-27 03:32:17.850 ,5,1,-1.00,-1.00,-1.00,-1.00,45.4,1.53,-1.00,-1.00,-1.00,-1.00
1979-02-27 03:32:18.290 ,1979-02-27 03:32:41.850 ,6,1,-1.00,-1.00,-1.00,-1.00,47.7,1.57,-1.00,-1.00,33.8,2.37
1979-02-27 03:32:42.290 ,1979-02-27 03:33:05.850 ,7,1,-1.00,-1.00,-1.00,-1.00,47.3,1.57,62.7,3.23,32.9,2.62
1979-02-27 03:33:06.290 ,1979-02-27 03:33:47.850 ,8,1,-1.00,-1.00,145.,3.65,46.8,1.18,55.6,3.40,-1.00,-1.00
1979-02-27 03:33:47.920 ,1979-02-27 03:33:53.850 ,8,-1,139.,4.79,-1.00,-1.00,47.5,3.14,-1.00,-1.00,-1.00,-1.00
1979-02-27 03:33:54.290 ,1979-02-27 03:34:17.850 ,7,-1,128.,5.15,-1.00,-1.00,45.8,1.54,-1.00,-1.00,-1.00,-1.00
1979-02-27 03:34:18.290 ,1979-02-27 03:34:41.850 ,6,-1,-1.00,-1.00,-1.00,-1.00,44.0,1.51,-1.00,-1.00,-1.00,-1.00
1979-02-27 03:34:42.290 ,1979-02-27 03:35:05.850 ,5,-1,-1.00,-1.00,-1.00,-1.00,45.4,1.53,-1.00,-1.00,-1.00,-1.00
1979-02-27 03:35:06.290 ,1979-02-27 03:35:29.850 ,4,-1,-1.00,-1.00,-1.00,-1.00,46.0,1.55,-1.00,-1.00,-1.00,-1.00
1979-02-27 03:35:30.290 ,1979-02-27 03:35:53.850 ,3,-1,-1.00,-1.00,-1.00,-1.00,47.1,1.56,-1.00,-1.00,32.2,2.31
1979-02-27 03:35:54.290 ,1979-02-27 03:36:17.850 ,2,-1,-1.00,-1.00,-1.00,-1.00,45.8,1.54,58.2,3.11,32.3,2.59
1979-02-27 03:36:17.920 ,1979-02-27 03:36:42.290 ,1,-1,-1.00,-1.00,149.,4.54,46.9,1.80,55.0,6.76,-1.00,-1.00
1979-02-27 03:36:42.290 ,1979-02-27 03:37:05.850 ,1,1,134.,4.71,148.,5.54,45.4,1.53,-1.00,-1.00,-1.00,-1.00
1979-02-27 03:37:06.290 ,1979-02-27 03:37:29.850 ,2,1,132.,5.23,-1.00,-1.00,47.1,1.56,-1.00,-1.00,-1.00,-1.00
1979-02-27 03:37:30.290 ,1979-02-27 03:37:53.850 ,3,1,-1.00,-1.00,-1.00,-1.00,46.0,1.55,-1.00,-1.00,-1.00,-1.00
1979-02-27 03:37:54.290 ,1979-02-27 03:38:17.850 ,4,1,-1.00,-1.00,-1.00,-1.00,45.0,1.53,-1.00,-1.00,-1.00,-1.00
1979-02-27 03:38:18.290 ,1979-02-27 03:38:41.850 ,5,1,-1.00,-1.00,-1.00,-1.00,47.5,1.57,-1.00,-1.00,-1.00,-1.00
1979-02-27 03:38:42.290 ,1979-02-27 03:39:05.850 ,6,1,-1.00,-1.00,-1.00,-1.00,46.3,1.55,-1.00,-1.00,30.5,2.25
1979-02-27 03:39:06.290 ,1979-02-27 03:39:29.850 ,7,1,-1.00,-1.00,-1.00,-1.00,45.2,1.53,60.5,3.17,36.7,2.76
1979-02-27 03:39:30.290 ,1979-02-27 03:40:11.850 ,8,1,-1.00,-1.00,154.,3.76,46.1,1.17,56.5,3.42,-1.00,-1.00
1979-02-27 03:40:11.920 ,1979-02-27 03:40:17.850 ,8,-1,138.,4.79,-1.00,-1.00,41.7,2.94,-1.00,-1.00,-1.00,-1.00
1979-02-27 03:40:18.290 ,1979-02-27 03:40:41.850 ,7,-1,133.,5.24,-1.00,-1.00,47.5,1.57,-1.00,-1.00,-1.00,-1.00
1979-02-27 03:40:42.290 ,1979-02-27 03:41:05.850 ,6,-1,-1.00,-1.00,-1.00,-1.00,47.7,1.57,-1.00,-1.00,-1.00,-1.00
1979-02-27 03:41:06.290 ,1979-02-27 03:41:29.850 ,5,-1,-1.00,-1.00,-1.00,-1.00,48.1,1.58,-1.00,-1.00,-1.00,-1.00
1979-02-27 03:41:30.290 ,1979-02-27 03:41:53.850 ,4,-1,-1.00,-1.00,-1.00,-1.00,49.2,1.60,-1.00,-1.00,-1.00,-1.00
1979-02-27 03:41:54.290 ,1979-02-27 03:42:17.850 ,3,-1,-1.00,-1.00,-1.00,-1.00,48.5,1.59,-1.00,-1.00,33.5,2.36
1979-02-27 03:42:18.290 ,1979-02-27 03:42:41.850 ,2,-1,-1.00,-1.00,-1.00,-1.00,45.0,1.53,63.5,3.24,32.7,2.61
1979-02-27 03:42:41.920 ,1979-02-27 03:43:06.290 ,1,-1,-1.00,-1.00,152.,4.59,48.9,1.84,63.3,7.26,-1.00,-1.00
1979-02-27 03:43:06.290 ,1979-02-27 03:43:29.850 ,1,1,148.,4.95,136.,5.31,46.5,1.55,-1.00,-1.00,-1.00,-1.00
1979-02-27 03:43:30.290 ,1979-02-27 03:43:53.850 ,2,1,133.,5.24,-1.00,-1.00,47.3,1.57,-1.00,-1.00,-1.00,-1.00
1979-02-27 03:43:54.290 ,1979-02-27 03:44:17.850 ,3,1,-1.00,-1.00,-1.00,-1.00,44.0,1.51,-1.00,-1.00,-1.00,-1.00
1979-02-27 03:44:18.290 ,1979-02-27 03:44:41.850 ,4,1,-1.00,-1.00,-1.00,-1.00,47.3,1.57,-1.00,-1.00,-1.00,-1.00
1979-02-27 03:44:42.290 ,1979-02-27 03:45:05.850 ,5,1,-1.00,-1.00,-1.00,-1.00,46.0,1.55,-1.00,-1.00,-1.00,-1.00
1979-02-27 03:45:06.290 ,1979-02-27 03:45:29.850 ,6,1,-1.00,-1.00,-1.00,-1.00,45.8,1.54,-1.00,-1.00,31.8,2.30
1979-02-27 03:45:30.290 ,1979-02-27 03:45:53.850 ,7,1,-1.00,-1.00,-1.00,-1.00,45.6,1.54,75.3,3.54,28.1,2.42
1979-02-27 03:45:54.290 ,1979-02-27 03:46:35.850 ,8,1,-1.00,-1.00,149.,3.70,45.2,1.16,67.1,3.73,-1.00,-1.00
1979-02-27 03:46:35.920 ,1979-02-27 03:46:41.850 ,8,-1,143.,4.86,-1.00,-1.00,47.5,3.14,-1.00,-1.00,-1.00,-1.00
1979-02-27 03:46:42.290 ,1979-02-27 03:47:05.850 ,7,-1,132.,5.23,-1.00,-1.00,45.8,1.54,-1.00,-1.00,-1.00,-1.00
1979-02-27 03:47:06.290 ,1979-02-27 03:47:29.850 ,6,-1,-1.00,-1.00,-1.00,-1.00,47.7,1.57,-1.00,-1.00,-1.00,-1.00
1979-02-27 03:47:30.290 ,1979-02-27 03:47:53.850 ,5,-1,-1.00,-1.00,-1.00,-1.00,47.5,1.57,-1.00,-1.00,-1.00,-1.00
1979-02-27 03:47:54.290 ,1979-02-27 03:48:17.850 ,4,-1,-1.00,-1.00,-1.00,-1.00,46.3,1.55,-1.00,-1.00,-1.00,-1.00
1979-02-27 03:48:18.290 ,1979-02-27 03:48:41.850 ,3,-1,-1.00,-1.00,-1.00,-1.00,50.0,1.61,-1.00,-1.00,30.8,2.26
1979-02-27 03:48:42.290 ,1979-02-27 03:49:05.850 ,2,-1,-1.00,-1.00,-1.00,-1.00,45.2,1.53,63.5,3.24,31.7,2.57
1979-02-27 03:49:05.920 ,1979-02-27 03:49:30.290 ,1,-1,-1.00,-1.00,143.,4.44,45.6,1.77,65.8,3.70,-1.00,-1.00
1979-02-27 03:49:30.290 ,1979-02-27 03:49:53.850 ,1,1,141.,4.84,146.,5.49,44.6,1.52,-1.00,-1.00,-1.00,-1.00
1979-02-27 03:49:54.290 ,1979-02-27 03:50:17.850 ,2,1,148.,5.53,-1.00,-1.00,45.4,1.53,-1.00,-1.00,-1.00,-1.00
1979-02-27 03:50:18.290 ,1979-02-27 03:50:41.850 ,3,1,-1.00,-1.00,-1.00,-1.00,43.3,1.50,-1.00,-1.00,-1.00,-1.00
1979-02-27 03:50:42.290 ,1979-02-27 03:51:05.850 ,4,1,-1.00,-1.00,-1.00,-1.00,44.8,1.53,-1.00,-1.00,-1.00,-1.00
1979-02-27 03:51:06.290 ,1979-02-27 03:51:29.850 ,5,1,-1.00,-1.00,-1.00,-1.00,45.4,1.53,-1.00,-1.00,-1.00,-1.00
1979-02-27 03:51:30.290 ,1979-02-27 03:51:53.850 ,6,1,-1.00,-1.00,-1.00,-1.00,46.0,1.55,-1.00,-1.00,31.8,2.30
1979-02-27 03:51:54.290 ,1979-02-27 03:52:17.850 ,7,1,-1.00,-1.00,-1.00,-1.00,46.7,1.55,62.3,3.21,29.8,2.49
1979-02-27 03:52:18.290 ,1979-02-27 03:52:59.850 ,8,1,-1.00,-1.00,147.,3.67,46.5,1.17,57.9,3.47,-1.00,-1.00
1979-02-27 03:52:59.920 ,1979-02-27 03:53:05.850 ,8,-1,137.,4.76,-1.00,-1.00,47.5,3.14,-1.00,-1.00,-1.00,-1.00
1979-02-27 03:53:06.290 ,1979-02-27 03:53:29.850 ,7,-1,134.,6.09,-1.00,-1.00,46.9,1.56,-1.00,-1.00,-1.00,-1.00
1979-02-27 03:53:30.290 ,1979-02-27 03:53:53.850 ,6,-1,-1.00,-1.00,-1.00,-1.00,46.0,1.55,-1.00,-1.00,-1.00,-1.00
1979-02-27 03:53:54.290 ,1979-02-27 03:54:17.850 ,5,-1,-1.00,-1.00,-1.00,-1.00,46.7,1.55,-1.00,-1.00,-1.00,-1.00
1979-02-27 03:54:18.290 ,1979-02-27 03:54:41.850 ,4,-1,-1.00,-1.00,-1.00,-1.00,44.8,1.53,-1.00,-1.00,-1.00,-1.00
1979-02-27 03:54:42.290 ,1979-02-27 03:55:05.850 ,3,-1,-1.00,-1.00,-1.00,-1.00,42.5,1.49,-1.00,-1.00,35.2,2.42
1979-02-27 03:55:06.290 ,1979-02-27 03:55:29.850 ,2,-1,-1.00,-1.00,-1.00,-1.00,45.2,1.53,61.7,3.20,32.3,2.59
1979-02-27 03:55:29.920 ,1979-02-27 03:55:54.290 ,1,-1,-1.00,-1.00,148.,4.53,44.2,1.75,65.0,7.35,-1.00,-1.00
1979-02-27 03:55:54.290 ,1979-02-27 03:56:17.850 ,1,1,143.,4.86,149.,5.57,46.0,1.55,-1.00,-1.00,-1.00,-1.00
1979-02-27 03:56:18.290 ,1979-02-27 03:56:41.850 ,2,1,135.,5.29,-1.00,-1.00,47.3,1.57,-1.00,-1.00,-1.00,-1.00
1979-02-27 03:56:42.290 ,1979-02-27 03:57:05.850 ,3,1,-1.00,-1.00,-1.00,-1.00,44.4,1.52,-1.00,-1.00,-1.00,-1.00
1979-02-27 03:57:06.290 ,1979-02-27 03:57:29.850 ,4,1,-1.00,-1.00,-1.00,-1.00,48.5,1.59,-1.00,-1.00,-1.00,-1.00
1979-02-27 03:57:30.290 ,1979-02-27 03:57:53.850 ,5,1,-1.00,-1.00,-1.00,-1.00,45.2,1.53,-1.00,-1.00,-1.00,-1.00
1979-02-27 03:57:54.290 ,1979-02-27 03:58:17.850 ,6,1,-1.00,-1.00,-1.00,-1.00,45.0,1.53,-1.00,-1.00,28.5,2.18
1979-02-27 03:58:18.290 ,1979-02-27 03:58:41.850 ,7,1,-1.00,-1.00,-1.00,-1.00,49.0,1.59,74.3,3.52,31.2,2.55
1979-02-27 03:58:42.290 ,1979-02-27 03:59:23.850 ,8,1,-1.00,-1.00,190.,4.19,45.0,1.15,72.5,3.89,-1.00,-1.00
1979-02-27 03:59:23.920 ,1979-02-27 03:59:29.850 ,8,-1,140.,4.81,-1.00,-1.00,53.3,3.33,-1.00,-1.00,-1.00,-1.00
1979-02-27 03:59:30.290 ,1979-02-27 03:59:53.850 ,7,-1,133.,5.25,-1.00,-1.00,45.8,1.54,-1.00,-1.00,-1.00,-1.00
1979-02-27 03:59:54.290 ,1979-02-27 04:00:17.850 ,6,-1,-1.00,-1.00,-1.00,-1.00,46.5,1.55,-1.00,-1.00,-1.00,-1.00
1979-02-27 04:00:18.290 ,1979-02-27 04:00:41.850 ,5,-1,-1.00,-1.00,-1.00,-1.00,46.0,1.55,-1.00,-1.00,-1.00,-1.00
1979-02-27 04:00:42.290 ,1979-02-27 04:01:05.850 ,4,-1,-1.00,-1.00,-1.00,-1.00,46.9,1.56,-1.00,-1.00,-1.00,-1.00
1979-02-27 04:01:06.290 ,1979-02-27 04:01:29.850 ,3,-1,-1.00,-1.00,-1.00,-1.00,46.3,1.55,-1.00,-1.00,29.0,2.20
1979-02-27 04:01:30.290 ,1979-02-27 04:01:53.850 ,2,-1,-1.00,-1.00,-1.00,-1.00,47.9,1.58,62.3,3.21,29.2,2.46
1979-02-27 04:01:53.920 ,1979-02-27 04:02:18.290 ,1,-1,-1.00,-1.00,160.,4.70,46.4,1.79,53.3,6.67,-1.00,-1.00
1979-02-27 04:02:18.290 ,1979-02-27 04:02:41.850 ,1,1,148.,4.95,147.,5.52,46.7,1.55,-1.00,-1.00,-1.00,-1.00
1979-02-27 04:02:42.290 ,1979-02-27 04:03:05.850 ,2,1,136.,5.31,-1.00,-1.00,44.8,1.53,-1.00,-1.00,-1.00,-1.00
1979-02-27 04:03:06.290 ,1979-02-27 04:03:29.850 ,3,1,-1.00,-1.00,-1.00,-1.00,46.9,1.56,-1.00,-1.00,-1.00,-1.00
1979-02-27 04:03:30.290 ,1979-02-27 04:03:53.850 ,4,1,-1.00,-1.00,-1.00,-1.00,46.3,1.55,-1.00,-1.00,-1.00,-1.00
1979-02-27 04:03:54.290 ,1979-02-27 04:04:17.850 ,5,1,-1.00,-1.00,-1.00,-1.00,46.0,1.55,-1.00,-1.00,-1.00,-1.00
1979-02-27 04:04:18.290 ,1979-02-27 04:04:41.850 ,6,1,-1.00,-1.00,-1.00,-1.00,46.0,1.55,-1.00,-1.00,30.7,2.26
1979-02-27 04:04:42.290 ,1979-02-27 04:05:05.850 ,7,1,-1.00,-1.00,-1.00,-1.00,45.8,1.54,70.3,3.42,32.1,2.58
1979-02-27 04:05:06.290 ,1979-02-27 04:05:47.850 ,8,1,-1.00,-1.00,160.,3.83,46.5,1.17,66.7,3.72,-1.00,-1.00
1979-02-27 04:05:47.920 ,1979-02-27 04:05:53.850 ,8,-1,139.,4.79,-1.00,-1.00,45.8,3.09,-1.00,-1.00,-1.00,-1.00
1979-02-27 04:05:54.290 ,1979-02-27 04:06:17.850 ,7,-1,135.,5.29,-1.00,-1.00,43.1,1.50,-1.00,-1.00,-1.00,-1.00
1979-02-27 04:06:18.290 ,1979-02-27 04:06:41.850 ,6,-1,-1.00,-1.00,-1.00,-1.00,44.4,1.52,-1.00,-1.00,-1.00,-1.00
1979-02-27 04:06:42.290 ,1979-02-27 04:07:05.850 ,5,-1,-1.00,-1.00,-1.00,-1.00,45.8,1.54,-1.00,-1.00,-1.00,-1.00
1979-02-27 04:07:06.290 ,1979-02-27 04:07:29.850 ,4,-1,-1.00,-1.00,-1.00,-1.00,46.9,1.56,-1.00,-1.00,-1.00,-1.00
1979-02-27 04:07:30.290 ,1979-02-27 04:07:53.850 ,3,-1,-1.00,-1.00,-1.00,-1.00,45.8,1.54,-1.00,-1.00,33.2,2.35
1979-02-27 04:07:54.290 ,1979-02-27 04:08:17.850 ,2,-1,-1.00,-1.00,-1.00,-1.00,44.8,1.53,63.0,3.24,32.3,2.59
1979-02-27 04:08:17.920 ,1979-02-27 04:08:42.290 ,1,-1,-1.00,-1.00,158.,4.66,44.2,1.75,60.0,7.07,-1.00,-1.00
1979-02-27 04:08:42.290 ,1979-02-27 04:09:05.850 ,1,1,140.,4.81,156.,5.70,44.6,1.52,-1.00,-1.00,-1.00,-1.00
1979-02-27 04:09:06.290 ,1979-02-27 04:09:29.850 ,2,1,138.,5.36,-1.00,-1.00,45.0,1.53,-1.00,-1.00,-1.00,-1.00
1979-02-27 04:09:30.290 ,1979-02-27 04:09:53.850 ,3,1,-1.00,-1.00,-1.00,-1.00,46.3,1.55,-1.00,-1.00,-1.00,-1.00
1979-02-27 04:09:54.290 ,1979-02-27 04:10:17.850 ,4,1,-1.00,-1.00,-1.00,-1.00,44.6,1.52,-1.00,-1.00,-1.00,-1.00
1979-02-27 04:10:18.290 ,1979-02-27 04:10:41.850 ,5,1,-1.00,-1.00,-1.00,-1.00,46.9,1.56,-1.00,-1.00,-1.00,-1.00
1979-02-27 04:10:42.290 ,1979-02-27 04:11:05.850 ,6,1,-1.00,-1.00,-1.00,-1.00,44.8,1.53,-1.00,-1.00,33.0,2.34
1979-02-27 04:11:06.290 ,1979-02-27 04:11:29.850 ,7,1,-1.00,-1.00,-1.00,-1.00,45.8,1.54,72.0,3.45,32.3,2.59
1979-02-27 04:11:30.290 ,1979-02-27 04:12:11.850 ,8,1,-1.00,-1.00,153.,3.74,46.5,1.17,65.0,3.68,-1.00,-1.00
1979-02-27 04:12:11.920 ,1979-02-27 04:12:17.850 ,8,-1,144.,4.88,-1.00,-1.00,51.7,3.28,-1.00,-1.00,-1.00,-1.00
1979-02-27 04:12:18.290 ,1979-02-27 04:12:41.850 ,7,-1,132.,5.23,-1.00,-1.00,46.3,1.55,-1.00,-1.00,-1.00,-1.00
1979-02-27 04:12:42.290 ,1979-02-27 04:13:05.850 ,6,-1,-1.00,-1.00,-1.00,-1.00,46.5,1.55,-1.00,-1.00,-1.00,-1.00
1979-02-27 04:13:06.290 ,1979-02-27 04:13:29.850 ,5,-1,-1.00,-1.00,-1.00,-1.00,43.8,1.50,-1.00,-1.00,-1.00,-1.00
1979-02-27 04:13:30.290 ,1979-02-27 04:13:53.850 ,4,-1,-1.00,-1.00,-1.00,-1.00,45.2,1.53,-1.00,-1.00,-1.00,-1.00
1979-02-27 04:13:54.290 ,1979-02-27 04:14:17.850 ,3,-1,-1.00,-1.00,-1.00,-1.00,46.7,1.55,-1.00,-1.00,30.8,2.26
1979-02-27 04:14:18.290 ,1979-02-27 04:14:41.850 ,2,-1,-1.00,-1.00,-1.00,-1.00,43.3,1.50,73.0,3.48,32.7,2.61
1979-02-27 04:14:41.920 ,1979-02-27 04:15:06.290 ,1,-1,-1.00,-1.00,141.,4.41,45.0,1.76,63.3,7.26,-1.00,-1.00
1979-02-27 04:15:06.290 ,1979-02-27 04:15:29.850 ,1,1,143.,4.86,140.,5.38,44.4,1.52,-1.00,-1.00,-1.00,-1.00
1979-02-27 04:15:30.290 ,1979-02-27 04:15:53.860 ,2,1,133.,5.25,-1.00,-1.00,43.8,1.50,-1.00,-1.00,-1.00,-1.00
1979-02-27 04:15:54.290 ,1979-02-27 04:16:17.860 ,3,1,-1.00,-1.00,-1.00,-1.00,42.9,1.49,-1.00,-1.00,-1.00,-1.00
1979-02-27 04:16:18.290 ,1979-02-27 04:16:35.860 ,4,1,-1.00,-1.00,-1.00,-1.00,45.8,1.78,-1.00,-1.00,-1.00,-1.00
1979-02-27 04:16:35.920 ,1979-02-27 04:16:59.920 ,9,0,-1.00,-1.00,-1.00,-1.00,38.3,2.82,-1.00,-1.00,-1.00,-1.00
1979-02-27 04:17:23.920 ,1979-02-27 04:17:29.860 ,6,1,-1.00,-1.00,-1.00,-1.00,48.3,3.17,-1.00,-1.00,32.5,2.33
1979-02-27 04:17:30.290 ,1979-02-27 04:17:53.860 ,7,1,-1.00,-1.00,-1.00,-1.00,44.2,1.51,81.0,3.67,34.4,2.67
1979-02-27 04:17:54.290 ,1979-02-27 04:18:35.860 ,8,1,-1.00,-1.00,144.,3.66,46.1,1.17,74.2,3.93,-1.00,-1.00
1979-02-27 04:18:35.920 ,1979-02-27 04:18:41.860 ,8,-1,142.,4.86,-1.00,-1.00,46.7,3.11,-1.00,-1.00,-1.00,-1.00
1979-02-27 04:18:42.290 ,1979-02-27 04:19:05.860 ,7,-1,127.,5.13,-1.00,-1.00,46.5,1.55,-1.00,-1.00,-1.00,-1.00
1979-02-27 04:19:06.290 ,1979-02-27 04:19:29.860 ,6,-1,-1.00,-1.00,-1.00,-1.00,47.5,1.57,-1.00,-1.00,-1.00,-1.00
1979-02-27 04:19:30.290 ,1979-02-27 04:19:53.860 ,5,-1,-1.00,-1.00,-1.00,-1.00,48.3,1.59,-1.00,-1.00,-1.00,-1.00
1979-02-27 04:19:54.290 ,1979-02-27 04:20:17.860 ,4,-1,-1.00,-1.00,-1.00,-1.00,41.3,1.46,-1.00,-1.00,-1.00,-1.00
1979-02-27 04:20:18.290 ,1979-02-27 04:20:41.860 ,3,-1,-1.00,-1.00,-1.00,-1.00,45.0,1.53,-1.00,-1.00,27.5,2.14
1979-02-27 04:20:42.290 ,1979-02-27 04:21:05.860 ,2,-1,-1.00,-1.00,-1.00,-1.00,47.3,1.57,70.3,3.42,29.2,2.46
1979-02-27 04:21:05.920 ,1979-02-27 04:21:30.290 ,1,-1,-1.00,-1.00,149.,4.54,47.8,1.81,63.3,7.26,-1.00,-1.00
1979-02-27 04:21:30.290 ,1979-02-27 04:21:53.860 ,1,1,138.,4.79,138.,5.35,49.0,1.59,-1.00,-1.00,-1.00,-1.00
1979-02-27 04:21:54.290 ,1979-02-27 04:22:17.860 ,2,1,133.,5.25,-1.00,-1.00,45.8,1.54,-1.00,-1.00,-1.00,-1.00
1979-02-27 04:22:18.290 ,1979-02-27 04:22:41.860 ,3,1,-1.00,-1.00,-1.00,-1.00,46.7,1.55,-1.00,-1.00,-1.00,-1.00
1979-02-27 04:22:42.290 ,1979-02-27 04:23:05.860 ,4,1,-1.00,-1.00,-1.00,-1.00,45.8,1.54,-1.00,-1.00,-1.00,-1.00
1979-02-27 04:23:06.290 ,1979-02-27 04:23:29.860 ,5,1,-1.00,-1.00,-1.00,-1.00,46.3,1.55,-1.00,-1.00,-1.00,-1.00
1979-02-27 04:23:30.290 ,1979-02-27 04:23:53.860 ,6,1,-1.00,-1.00,-1.00,-1.00,46.5,1.55,-1.00,-1.00,24.2,2.01
1979-02-27 04:23:54.290 ,1979-02-27 04:24:17.860 ,7,1,-1.00,-1.00,-1.00,-1.00,48.3,1.59,80.3,3.65,29.2,2.46
1979-02-27 04:24:18.290 ,1979-02-27 04:24:59.860 ,8,1,-1.00,-1.00,147.,3.69,45.1,1.16,69.2,3.79,-1.00,-1.00
1979-02-27 04:24:59.920 ,1979-02-27 04:25:05.860 ,8,-1,138.,4.79,-1.00,-1.00,45.8,3.09,-1.00,-1.00,-1.00,-1.00
1979-02-27 04:25:06.290 ,1979-02-27 04:25:29.860 ,7,-1,139.,5.37,-1.00,-1.00,49.0,1.59,-1.00,-1.00,-1.00,-1.00
1979-02-27 04:25:30.290 ,1979-02-27 04:25:53.860 ,6,-1,-1.00,-1.00,-1.00,-1.00,46.7,1.55,-1.00,-1.00,-1.00,-1.00
1979-02-27 04:25:54.290 ,1979-02-27 04:26:17.860 ,5,-1,-1.00,-1.00,-1.00,-1.00,45.8,1.54,-1.00,-1.00,-1.00,-1.00
1979-02-27 04:26:18.290 ,1979-02-27 04:26:41.860 ,4,-1,-1.00,-1.00,-1.00,-1.00,46.0,1.55,-1.00,-1.00,-1.00,-1.00
1979-02-27 04:26:42.290 ,1979-02-27 04:27:05.860 ,3,-1,-1.00,-1.00,-1.00,-1.00,44.0,1.51,-1.00,-1.00,28.2,2.17
1979-02-27 04:27:06.290 ,1979-02-27 04:27:29.860 ,2,-1,-1.00,-1.00,-1.00,-1.00,46.3,1.55,64.0,3.26,32.1,2.58
1979-02-27 04:27:29.920 ,1979-02-27 04:27:54.290 ,1,-1,-1.00,-1.00,148.,4.53,42.5,1.71,70.0,7.63,-1.00,-1.00
1979-02-27 04:27:54.290 ,1979-02-27 04:28:17.860 ,1,1,127.,4.59,144.,5.47,46.0,1.55,-1.00,-1.00,-1.00,-1.00
1979-02-27 04:28:18.290 ,1979-02-27 04:28:41.860 ,2,1,139.,5.37,-1.00,-1.00,45.2,1.53,-1.00,-1.00,-1.00,-1.00
1979-02-27 04:28:42.290 ,1979-02-27 04:29:05.860 ,3,1,-1.00,-1.00,-1.00,-1.00,44.2,1.51,-1.00,-1.00,-1.00,-1.00